N737LE SBRJ-SBSP

Flight info

Callsign N737LE
Flight time 0h 47m
Altitude 34000
Route NAXOP UZ45 IBDAL
Aircraft B737/M-SDE2E3FGHIRWXY/LB1

Departure

Time 2026-05-05 18:39
Airport Santos Dumont Airport (SBRJ)

Arrival

Time 2026-05-05 19:27
Airport Congonhas–Deputado Freitas Nobre Airport (SBSP)
Time Latitude Longitude Altitude Speed Heading
2026-05-05 18:03 -22.91015 -43.16607 21 ft 0 kts 267°
2026-05-05 18:31 -22.91015 -43.16600 21 ft 2 kts 267°
2026-05-05 18:32 -22.91014 -43.16584 21 ft 2 kts 266°
2026-05-05 18:32 -22.91013 -43.16569 21 ft 1 kts 265°
2026-05-05 18:32 -22.91016 -43.16559 21 ft 1 kts 325°
2026-05-05 18:32 -22.91022 -43.16556 21 ft 0 kts
2026-05-05 18:33 -22.91028 -43.16556 21 ft 0 kts 356°
2026-05-05 18:35 -22.90999 -43.16558 21 ft 10 kts 356°
2026-05-05 18:35 -22.90885 -43.16566 21 ft 22 kts 356°
2026-05-05 18:35 -22.90728 -43.16560 21 ft 22 kts 356°
2026-05-05 18:36 -22.90588 -43.16561 21 ft 16 kts
2026-05-05 18:36 -22.90504 -43.16525 21 ft 11 kts 72°
2026-05-05 18:36 -22.90497 -43.16471 20 ft 0 kts 87°
2026-05-05 18:37 -22.90496 -43.16446 20 ft 6 kts 88°
2026-05-05 18:37 -22.90493 -43.16393 19 ft 6 kts 86°
2026-05-05 18:38 -22.90491 -43.16344 20 ft 6 kts 86°
2026-05-05 18:38 -22.90508 -43.16320 20 ft 3 kts 169°
2026-05-05 18:38 -22.90513 -43.16320 21 ft 0 kts 175°
2026-05-05 18:39 -22.90792 -43.16299 21 ft 86 kts 176°
2026-05-05 18:39 -22.91672 -43.16241 102 ft 156 kts 175°
2026-05-05 18:39 -22.92819 -43.16169 840 ft 175 kts 175°
2026-05-05 18:39 -22.93961 -43.16329 1858 ft 168 kts 206°
2026-05-05 18:40 -22.95012 -43.16995 2250 ft 188 kts 196°
2026-05-05 18:40 -22.96366 -43.17041 2714 ft 203 kts 167°
2026-05-05 18:40 -22.97785 -43.16695 3279 ft 215 kts 167°
2026-05-05 18:40 -22.99311 -43.16405 3828 ft 230 kts 169°
2026-05-05 18:41 -23.00927 -43.16122 4396 ft 242 kts 169°
2026-05-05 18:41 -23.02613 -43.15812 5001 ft 252 kts 169°
2026-05-05 18:41 -23.04331 -43.15482 5773 ft 254 kts 169°
2026-05-05 18:41 -23.06101 -43.15352 6574 ft 255 kts 184°
2026-05-05 18:42 -23.07775 -43.15956 7294 ft 262 kts 211°
2026-05-05 18:42 -23.09221 -43.17187 8097 ft 269 kts 219°
2026-05-05 18:42 -23.10682 -43.18522 8689 ft 284 kts 219°
2026-05-05 18:42 -23.12228 -43.19895 9482 ft 291 kts 218°
2026-05-05 18:43 -23.13810 -43.21275 10386 ft 294 kts 218°
2026-05-05 18:43 -23.15429 -43.22679 11108 ft 305 kts 218°
2026-05-05 18:43 -23.17098 -43.24130 12008 ft 309 kts 218°
2026-05-05 18:43 -23.18767 -43.25583 12929 ft 312 kts 218°
2026-05-05 18:44 -23.20464 -43.27062 13839 ft 317 kts 218°
2026-05-05 18:44 -23.22204 -43.28581 14684 ft 322 kts 218°
2026-05-05 18:44 -23.23952 -43.30105 15482 ft 326 kts 218°
2026-05-05 18:44 -23.25730 -43.31657 16366 ft 331 kts 218°
2026-05-05 18:45 -23.27525 -43.33225 17166 ft 334 kts 218°
2026-05-05 18:45 -23.29322 -43.34795 17966 ft 337 kts 218°
2026-05-05 18:45 -23.31139 -43.36405 18801 ft 339 kts 220°
2026-05-05 18:45 -23.32799 -43.38234 19633 ft 341 kts 230°
2026-05-05 18:46 -23.34081 -43.40386 20379 ft 346 kts 242°
2026-05-05 18:46 -23.34949 -43.42836 21102 ft 350 kts 252°
2026-05-05 18:46 -23.35551 -43.45408 21846 ft 353 kts 255°
2026-05-05 18:46 -23.36075 -43.48026 22524 ft 356 kts 256°
2026-05-05 18:47 -23.36595 -43.50623 23212 ft 358 kts 255°
2026-05-05 18:47 -23.37148 -43.53277 23928 ft 360 kts 255°
2026-05-05 18:47 -23.37726 -43.55943 24610 ft 362 kts 254°
2026-05-05 18:47 -23.38312 -43.58566 25288 ft 363 kts 254°
2026-05-05 18:48 -23.38919 -43.61239 25953 ft 364 kts 254°
2026-05-05 18:48 -23.39538 -43.63929 26553 ft 367 kts 253°
2026-05-05 18:48 -23.40160 -43.66610 27155 ft 369 kts 254°
2026-05-05 18:48 -23.40791 -43.69324 27745 ft 371 kts 254°
2026-05-05 18:49 -23.41421 -43.72035 28320 ft 373 kts 254°
2026-05-05 18:49 -23.42059 -43.74780 28896 ft 374 kts 254°
2026-05-05 18:49 -23.42697 -43.77525 29425 ft 377 kts 254°
2026-05-05 18:49 -23.43337 -43.80282 29927 ft 379 kts 254°
2026-05-05 18:50 -23.43984 -43.83066 30398 ft 382 kts 254°
2026-05-05 18:50 -23.44647 -43.85923 30892 ft 384 kts 254°
2026-05-05 18:50 -23.45309 -43.88776 31299 ft 388 kts 253°
2026-05-05 18:50 -23.45967 -43.91615 31772 ft 389 kts 253°
2026-05-05 18:51 -23.46628 -43.94470 32198 ft 392 kts 253°
2026-05-05 18:51 -23.47298 -43.97366 32660 ft 394 kts 253°
2026-05-05 18:51 -23.47961 -44.00234 33058 ft 396 kts 253°
2026-05-05 18:51 -23.48637 -44.03167 33524 ft 397 kts 253°
2026-05-05 18:52 -23.49301 -44.06054 33896 ft 400 kts 253°
2026-05-05 18:52 -23.49977 -44.09011 34112 ft 404 kts 253°
2026-05-05 18:52 -23.51327 -44.14926 34111 ft 400 kts 253°
2026-05-05 18:53 -23.52676 -44.20812 34113 ft 400 kts 253°
2026-05-05 18:53 -23.54022 -44.26682 34112 ft 401 kts 253°
2026-05-05 18:54 -23.55369 -44.32556 34115 ft 400 kts 253°
2026-05-05 18:54 -23.56708 -44.38406 34112 ft 399 kts 253°
2026-05-05 18:55 -23.58051 -44.44278 34118 ft 400 kts 253°
2026-05-05 18:55 -23.59389 -44.50147 34115 ft 399 kts 253°
2026-05-05 18:56 -23.60728 -44.56022 34113 ft 400 kts 253°
2026-05-05 18:56 -23.62061 -44.61897 34121 ft 401 kts 253°
2026-05-05 18:57 -23.63390 -44.67820 34118 ft 401 kts 254°
2026-05-05 18:57 -23.64722 -44.73712 34122 ft 401 kts 253°
2026-05-05 18:58 -23.66052 -44.79584 34119 ft 400 kts 253°
2026-05-05 18:58 -23.67378 -44.85468 34120 ft 399 kts 253°
2026-05-05 18:59 -23.68695 -44.91324 34124 ft 399 kts 253°
2026-05-05 18:59 -23.70036 -44.97283 34122 ft 412 kts 253°
2026-05-05 19:00 -23.70719 -45.00328 33962 ft 417 kts 253°
2026-05-05 19:00 -23.71400 -45.03373 33466 ft 414 kts 253°
2026-05-05 19:00 -23.72082 -45.06433 32855 ft 411 kts 254°
2026-05-05 19:00 -23.72755 -45.09455 32165 ft 410 kts 254°
2026-05-05 19:01 -23.73424 -45.12454 31455 ft 410 kts 254°
2026-05-05 19:01 -23.74095 -45.15464 30810 ft 408 kts 254°
2026-05-05 19:01 -23.74754 -45.18425 30304 ft 402 kts 254°
2026-05-05 19:01 -23.75407 -45.21363 29765 ft 398 kts 255°
2026-05-05 19:02 -23.76057 -45.24291 29206 ft 394 kts 255°
2026-05-05 19:02 -23.76701 -45.27196 28657 ft 395 kts 255°
2026-05-05 19:02 -23.77344 -45.30103 28122 ft 399 kts 255°
2026-05-05 19:02 -23.77998 -45.33060 27558 ft 396 kts 255°
2026-05-05 19:03 -23.78635 -45.35947 27014 ft 392 kts 255°
2026-05-05 19:03 -23.79245 -45.38799 26473 ft 388 kts 256°
2026-05-05 19:03 -23.79692 -45.41670 26168 ft 383 kts 261°
2026-05-05 19:03 -23.79961 -45.44574 26152 ft 390 kts 263°
2026-05-05 19:04 -23.80145 -45.47539 26150 ft 392 kts 264°
2026-05-05 19:04 -23.80294 -45.50513 26155 ft 391 kts 265°
2026-05-05 19:04 -23.80431 -45.53471 26159 ft 391 kts 265°
2026-05-05 19:04 -23.80568 -45.56445 26161 ft 393 kts 265°
2026-05-05 19:05 -23.80708 -45.59420 26156 ft 392 kts 265°
2026-05-05 19:05 -23.80851 -45.62381 26156 ft 392 kts 265°
2026-05-05 19:05 -23.80995 -45.65326 26144 ft 392 kts 265°
2026-05-05 19:05 -23.81141 -45.68292 26139 ft 391 kts 265°
2026-05-05 19:06 -23.81291 -45.71287 26139 ft 392 kts 265°
2026-05-05 19:06 -23.81438 -45.74226 26131 ft 391 kts 265°
2026-05-05 19:06 -23.81586 -45.77192 26126 ft 391 kts 265°
2026-05-05 19:06 -23.81733 -45.80157 25887 ft 385 kts 265°
2026-05-05 19:07 -23.81876 -45.83058 25291 ft 383 kts 265°
2026-05-05 19:07 -23.82017 -45.85948 24709 ft 381 kts 265°
2026-05-05 19:07 -23.82157 -45.88821 24162 ft 378 kts 265°
2026-05-05 19:07 -23.82296 -45.91647 23628 ft 374 kts 265°
2026-05-05 19:08 -23.82436 -45.94477 23095 ft 371 kts 265°
2026-05-05 19:08 -23.82574 -45.97284 22574 ft 375 kts 265°
2026-05-05 19:08 -23.82716 -46.00153 22040 ft 378 kts 266°
2026-05-05 19:08 -23.82855 -46.02994 21508 ft 375 kts 266°
2026-05-05 19:09 -23.82991 -46.05810 20977 ft 372 kts 266°
2026-05-05 19:09 -23.83127 -46.08619 20456 ft 369 kts 266°
2026-05-05 19:09 -23.83261 -46.11391 19923 ft 366 kts 266°
2026-05-05 19:09 -23.83393 -46.14171 19403 ft 363 kts 266°
2026-05-05 19:10 -23.83523 -46.16903 18894 ft 360 kts 266°
2026-05-05 19:10 -23.83653 -46.19623 18377 ft 357 kts 266°
2026-05-05 19:10 -23.83782 -46.22346 17837 ft 356 kts 266°
2026-05-05 19:10 -23.83908 -46.25020 17328 ft 353 kts 266°
2026-05-05 19:11 -23.84033 -46.27687 16805 ft 351 kts 266°
2026-05-05 19:11 -23.84158 -46.30347 16308 ft 349 kts 266°
2026-05-05 19:11 -23.84281 -46.32972 15811 ft 347 kts 266°
2026-05-05 19:11 -23.84403 -46.35577 15313 ft 345 kts 266°
2026-05-05 19:12 -23.84525 -46.38183 14793 ft 345 kts 266°
2026-05-05 19:12 -23.84649 -46.40811 14267 ft 343 kts 266°
2026-05-05 19:12 -23.84769 -46.43386 13756 ft 341 kts 266°
2026-05-05 19:12 -23.84888 -46.45932 13264 ft 338 kts 266°
2026-05-05 19:13 -23.85007 -46.48516 12771 ft 336 kts 266°
2026-05-05 19:13 -23.85121 -46.51020 12286 ft 334 kts 266°
2026-05-05 19:13 -23.85239 -46.53572 11803 ft 332 kts 266°
2026-05-05 19:13 -23.85353 -46.56053 11308 ft 331 kts 266°
2026-05-05 19:14 -23.85455 -46.58591 10820 ft 328 kts 269°
2026-05-05 19:14 -23.85274 -46.61019 10505 ft 320 kts 282°
2026-05-05 19:14 -23.84387 -46.63176 10403 ft 304 kts 307°
2026-05-05 19:14 -23.82847 -46.64643 10286 ft 292 kts 327°
2026-05-05 19:15 -23.81123 -46.65772 9959 ft 287 kts 329°
2026-05-05 19:15 -23.79404 -46.66913 9596 ft 285 kts 327°
2026-05-05 19:15 -23.77743 -46.68058 9249 ft 282 kts 327°
2026-05-05 19:15 -23.76095 -46.69208 8999 ft 277 kts 327°
2026-05-05 19:16 -23.74482 -46.70334 8977 ft 273 kts 327°
2026-05-05 19:16 -23.72864 -46.71462 8974 ft 275 kts 327°
2026-05-05 19:16 -23.71247 -46.72585 8953 ft 273 kts 327°
2026-05-05 19:16 -23.69667 -46.73682 8747 ft 267 kts 328°
2026-05-05 19:17 -23.68083 -46.74782 8422 ft 273 kts 328°
2026-05-05 19:17 -23.66475 -46.75898 8083 ft 273 kts 328°
2026-05-05 19:17 -23.64864 -46.77014 7742 ft 271 kts 328°
2026-05-05 19:17 -23.63273 -46.78114 7407 ft 269 kts 328°
2026-05-05 19:18 -23.61699 -46.79204 7073 ft 268 kts 328°
2026-05-05 19:18 -23.60122 -46.80293 6739 ft 266 kts 328°
2026-05-05 19:18 -23.58574 -46.81364 6411 ft 264 kts 328°
2026-05-05 19:18 -23.57018 -46.82460 6080 ft 262 kts 325°
2026-05-05 19:19 -23.55639 -46.83755 5990 ft 262 kts 314°
2026-05-05 19:19 -23.54415 -46.85241 5989 ft 266 kts 311°
2026-05-05 19:19 -23.53215 -46.86783 5991 ft 265 kts 311°
2026-05-05 19:19 -23.52010 -46.88305 6003 ft 264 kts 312°
2026-05-05 19:20 -23.50681 -46.89660 5987 ft 263 kts 327°
2026-05-05 19:20 -23.48967 -46.90349 5987 ft 263 kts 355°
2026-05-05 19:20 -23.47165 -46.90110 5994 ft 263 kts 18°
2026-05-05 19:20 -23.45507 -46.89244 5994 ft 263 kts 34°
2026-05-05 19:21 -23.44248 -46.87826 5984 ft 262 kts 60°
2026-05-05 19:21 -23.43715 -46.85966 5984 ft 258 kts 84°
2026-05-05 19:21 -23.43764 -46.84051 5981 ft 249 kts 99°
2026-05-05 19:21 -23.44359 -46.82317 5979 ft 239 kts 122°
2026-05-05 19:22 -23.45350 -46.80935 5978 ft 225 kts 130°
2026-05-05 19:22 -23.46369 -46.79678 5874 ft 218 kts 130°
2026-05-05 19:22 -23.47358 -46.78448 5719 ft 210 kts 130°
2026-05-05 19:22 -23.48288 -46.77268 5571 ft 201 kts 129°
2026-05-05 19:23 -23.49180 -46.76128 5400 ft 195 kts 129°
2026-05-05 19:23 -23.50053 -46.75011 5221 ft 188 kts 129°
2026-05-05 19:23 -23.50886 -46.73971 5036 ft 181 kts 134°
2026-05-05 19:23 -23.51863 -46.73162 4775 ft 170 kts 146°
2026-05-05 19:24 -23.52817 -46.72474 4553 ft 158 kts 145°
2026-05-05 19:24 -23.53717 -46.71827 4370 ft 149 kts 146°
2026-05-05 19:24 -23.54581 -46.71227 4196 ft 146 kts 147°
2026-05-05 19:24 -23.55428 -46.70635 4000 ft 140 kts 147°
2026-05-05 19:25 -23.56252 -46.70067 3838 ft 140 kts 147°
2026-05-05 19:25 -23.57067 -46.69502 3667 ft 139 kts 147°
2026-05-05 19:25 -23.57890 -46.68937 3493 ft 139 kts 146°
2026-05-05 19:25 -23.58713 -46.68368 3333 ft 139 kts 147°
2026-05-05 19:26 -23.59517 -46.67816 3160 ft 136 kts 147°
2026-05-05 19:26 -23.60326 -46.67271 2981 ft 136 kts 147°
2026-05-05 19:26 -23.61129 -46.66711 2813 ft 133 kts 146°
2026-05-05 19:26 -23.61923 -46.66158 2660 ft 136 kts 147°
2026-05-05 19:27 -23.62708 -46.65619 2602 ft 118 kts 147°
2026-05-05 19:27 -23.63168 -46.65300 2618 ft 42 kts 148°
2026-05-05 19:27 -23.63373 -46.65215 2617 ft 19 kts 192°
2026-05-05 19:27 -23.63358 -46.65312 2619 ft 15 kts 324°
2026-05-05 19:28 -23.63259 -46.65381 2616 ft 17 kts 327°
2026-05-05 19:28 -23.63150 -46.65457 2612 ft 19 kts 328°
2026-05-05 19:28 -23.63022 -46.65521 2609 ft 20 kts 349°
2026-05-05 19:28 -23.62893 -46.65599 2604 ft 19 kts 327°
2026-05-05 19:29 -23.62817 -46.65653 2601 ft 12 kts 325°
2026-05-05 19:29 -23.62762 -46.65690 2600 ft 4 kts 328°
2026-05-05 19:29 -23.62755 -46.65727 2598 ft 6 kts 238°
2026-05-05 19:29 -23.62781 -46.65769 2597 ft 3 kts 237°
2026-05-05 19:30 -23.62784 -46.65774 2597 ft 0 kts 237°